AZU2694 SBKP-SBGO

Flight info

Callsign AZU2694
Flight time 1h 7m
Altitude 37000
Route ISMOB DCT CORVO
Aircraft A20N/M-SDE2E3FGHIRWXY/LB1

Departure

Time 2026-04-19 21:02
Airport Viracopos International Airport (SBKP)

Arrival

Time 2026-04-19 22:09
Airport Santa Genoveva International Airport (SBGO)
Time Latitude Longitude Altitude Speed Heading
2026-04-19 20:36 -23.00409 -47.14865 2179 ft 0 kts 215°
2026-04-19 20:50 -23.00407 -47.14864 2179 ft 0 kts 220°
2026-04-19 20:50 -23.00401 -47.14853 2179 ft 1 kts 229°
2026-04-19 20:51 -23.00390 -47.14845 2179 ft 2 kts 231°
2026-04-19 20:51 -23.00384 -47.14830 2179 ft 2 kts 258°
2026-04-19 20:51 -23.00384 -47.14814 2179 ft 2 kts 287°
2026-04-19 20:51 -23.00387 -47.14804 2179 ft 0 kts 304°
2026-04-19 20:52 -23.00392 -47.14797 2179 ft 0 kts 308°
2026-04-19 20:52 -23.00392 -47.14798 2179 ft 0 kts 308°
2026-04-19 20:54 -23.00384 -47.14808 2179 ft 2 kts 308°
2026-04-19 20:55 -23.00367 -47.14831 2179 ft 5 kts 309°
2026-04-19 20:55 -23.00340 -47.14866 2179 ft 6 kts 309°
2026-04-19 20:55 -23.00306 -47.14913 2179 ft 8 kts 307°
2026-04-19 20:55 -23.00264 -47.14970 2179 ft 10 kts 306°
2026-04-19 20:56 -23.00209 -47.15026 2179 ft 12 kts
2026-04-19 20:56 -23.00138 -47.14974 2178 ft 12 kts 40°
2026-04-19 20:56 -23.00071 -47.14916 2179 ft 11 kts 37°
2026-04-19 20:56 -23.00014 -47.14855 2178 ft 11 kts 58°
2026-04-19 20:57 -22.99956 -47.14791 2179 ft 12 kts 40°
2026-04-19 20:57 -22.99943 -47.14779 2179 ft 0 kts 41°
2026-04-19 20:59 -22.99942 -47.14778 2179 ft 1 kts 41°
2026-04-19 20:59 -22.99910 -47.14748 2179 ft 10 kts 42°
2026-04-19 20:59 -22.99863 -47.14682 2179 ft 12 kts 90°
2026-04-19 21:00 -22.99888 -47.14639 2179 ft 0 kts 129°
2026-04-19 21:00 -22.99889 -47.14638 2179 ft 6 kts 129°
2026-04-19 21:01 -23.00076 -47.14378 2179 ft 78 kts 128°
2026-04-19 21:01 -23.00502 -47.13784 2180 ft 132 kts 127°
2026-04-19 21:01 -23.01133 -47.12901 2185 ft 177 kts 128°
2026-04-19 21:01 -23.01917 -47.11756 2495 ft 192 kts 128°
2026-04-19 21:02 -23.02691 -47.10565 3094 ft 197 kts 119°
2026-04-19 21:02 -23.02877 -47.09133 3826 ft 197 kts 79°
2026-04-19 21:02 -23.02416 -47.07750 4410 ft 203 kts 69°
2026-04-19 21:02 -23.01856 -47.06279 4861 ft 218 kts 71°
2026-04-19 21:03 -23.01332 -47.04668 5187 ft 240 kts 74°
2026-04-19 21:03 -23.00793 -47.02867 5650 ft 260 kts 68°
2026-04-19 21:03 -22.99769 -47.01200 6140 ft 281 kts 45°
2026-04-19 21:03 -22.98217 -46.99861 6899 ft 289 kts 38°
2026-04-19 21:04 -22.96640 -46.98614 7509 ft 293 kts 37°
2026-04-19 21:04 -22.95087 -46.97381 7881 ft 295 kts 37°
2026-04-19 21:04 -22.93279 -46.96236 8312 ft 306 kts 17°
2026-04-19 21:04 -22.91189 -46.96057 9184 ft 304 kts 350°
2026-04-19 21:05 -22.89113 -46.96493 10045 ft 304 kts 347°
2026-04-19 21:05 -22.87017 -46.96957 10671 ft 314 kts 347°
2026-04-19 21:05 -22.84819 -46.97439 11086 ft 331 kts 347°
2026-04-19 21:05 -22.82506 -46.97939 11638 ft 342 kts 347°
2026-04-19 21:06 -22.80158 -46.98440 12342 ft 346 kts 347°
2026-04-19 21:06 -22.77920 -46.98915 13023 ft 349 kts 347°
2026-04-19 21:06 -22.75493 -46.99428 13722 ft 353 kts 347°
2026-04-19 21:06 -22.73100 -46.99934 14407 ft 357 kts 347°
2026-04-19 21:07 -22.70631 -47.00454 15097 ft 360 kts 348°
2026-04-19 21:07 -22.68173 -47.00972 15771 ft 363 kts 348°
2026-04-19 21:07 -22.65675 -47.01499 16451 ft 366 kts 348°
2026-04-19 21:07 -22.63183 -47.02025 17116 ft 368 kts 348°
2026-04-19 21:08 -22.60642 -47.02559 17774 ft 371 kts 348°
2026-04-19 21:08 -22.58104 -47.03092 18379 ft 375 kts 348°
2026-04-19 21:08 -22.55530 -47.03632 18969 ft 379 kts 348°
2026-04-19 21:08 -22.52922 -47.04180 19533 ft 384 kts 347°
2026-04-19 21:09 -22.50308 -47.04729 20111 ft 387 kts 347°
2026-04-19 21:09 -22.47624 -47.05293 20686 ft 391 kts 347°
2026-04-19 21:09 -22.44971 -47.05850 21220 ft 395 kts 347°
2026-04-19 21:09 -22.42235 -47.06425 21763 ft 399 kts 347°
2026-04-19 21:10 -22.39492 -47.07001 22294 ft 403 kts 347°
2026-04-19 21:10 -22.36742 -47.07579 22824 ft 407 kts 346°
2026-04-19 21:10 -22.33950 -47.08165 23402 ft 410 kts 347°
2026-04-19 21:10 -22.31136 -47.08755 24003 ft 412 kts 347°
2026-04-19 21:11 -22.28299 -47.09350 24600 ft 413 kts 346°
2026-04-19 21:11 -22.25486 -47.09940 25175 ft 415 kts 346°
2026-04-19 21:11 -22.22635 -47.10537 25740 ft 417 kts 346°
2026-04-19 21:11 -22.19794 -47.11132 26301 ft 418 kts 346°
2026-04-19 21:12 -22.16937 -47.11731 26834 ft 420 kts 346°
2026-04-19 21:12 -22.14047 -47.12335 27349 ft 421 kts 346°
2026-04-19 21:12 -22.11175 -47.12935 27845 ft 423 kts 346°
2026-04-19 21:12 -22.08298 -47.13537 28326 ft 425 kts 346°
2026-04-19 21:13 -22.05390 -47.14145 28807 ft 426 kts 346°
2026-04-19 21:13 -22.02444 -47.14761 29274 ft 428 kts 346°
2026-04-19 21:13 -21.99529 -47.15369 29674 ft 430 kts 346°
2026-04-19 21:13 -21.96571 -47.15985 30027 ft 433 kts 345°
2026-04-19 21:14 -21.93623 -47.16601 30349 ft 436 kts 345°
2026-04-19 21:14 -21.90629 -47.17227 30671 ft 439 kts 345°
2026-04-19 21:14 -21.87604 -47.17860 30976 ft 442 kts 345°
2026-04-19 21:14 -21.84581 -47.18491 31331 ft 443 kts 344°
2026-04-19 21:15 -21.81488 -47.19133 31754 ft 443 kts 344°
2026-04-19 21:15 -21.78488 -47.19837 32139 ft 441 kts 341°
2026-04-19 21:15 -21.75558 -47.20697 32492 ft 440 kts 338°
2026-04-19 21:15 -21.72616 -47.21611 32828 ft 440 kts 338°
2026-04-19 21:16 -21.69645 -47.22540 33190 ft 440 kts 338°
2026-04-19 21:16 -21.66704 -47.23462 33576 ft 440 kts 337°
2026-04-19 21:16 -21.63757 -47.24385 33980 ft 440 kts 337°
2026-04-19 21:16 -21.60815 -47.25304 34394 ft 439 kts 337°
2026-04-19 21:17 -21.57899 -47.26214 34786 ft 437 kts 337°
2026-04-19 21:17 -21.54988 -47.27121 35164 ft 436 kts 337°
2026-04-19 21:17 -21.52059 -47.28033 35504 ft 436 kts 337°
2026-04-19 21:17 -21.49145 -47.28942 35762 ft 437 kts 336°
2026-04-19 21:18 -21.46185 -47.29865 35993 ft 438 kts 336°
2026-04-19 21:18 -21.43266 -47.30774 36224 ft 439 kts 336°
2026-04-19 21:18 -21.40284 -47.31703 36430 ft 441 kts 336°
2026-04-19 21:18 -21.37352 -47.32614 36646 ft 442 kts 336°
2026-04-19 21:19 -21.34376 -47.33538 36845 ft 443 kts 336°
2026-04-19 21:19 -21.31407 -47.34460 37032 ft 445 kts 336°
2026-04-19 21:19 -21.25438 -47.36314 37034 ft 446 kts 336°
2026-04-19 21:20 -21.19486 -47.38160 37035 ft 446 kts 336°
2026-04-19 21:20 -21.13494 -47.40016 37029 ft 446 kts 336°
2026-04-19 21:21 -21.07548 -47.41856 37029 ft 446 kts 336°
2026-04-19 21:21 -21.01581 -47.43701 37036 ft 445 kts 336°
2026-04-19 21:22 -20.95596 -47.45552 37041 ft 445 kts 336°
2026-04-19 21:22 -20.89628 -47.47394 37043 ft 446 kts 336°
2026-04-19 21:23 -20.83661 -47.49235 37040 ft 445 kts 336°
2026-04-19 21:23 -20.77718 -47.51067 37029 ft 446 kts 336°
2026-04-19 21:24 -20.71749 -47.52906 37029 ft 445 kts 336°
2026-04-19 21:24 -20.65775 -47.54745 37027 ft 445 kts 336°
2026-04-19 21:25 -20.59813 -47.56578 37026 ft 445 kts 336°
2026-04-19 21:25 -20.53856 -47.58410 37022 ft 445 kts 336°
2026-04-19 21:26 -20.47914 -47.60234 37029 ft 445 kts 336°
2026-04-19 21:26 -20.41962 -47.62061 37031 ft 445 kts 336°
2026-04-19 21:27 -20.35987 -47.63893 37030 ft 445 kts 336°
2026-04-19 21:27 -20.30025 -47.65719 37032 ft 446 kts 336°
2026-04-19 21:28 -20.24019 -47.67557 37031 ft 446 kts 336°
2026-04-19 21:28 -20.18026 -47.69388 37012 ft 446 kts 336°
2026-04-19 21:29 -20.12087 -47.71202 37011 ft 446 kts 336°
2026-04-19 21:29 -20.06115 -47.73028 37005 ft 446 kts 336°
2026-04-19 21:30 -20.00146 -47.74848 36995 ft 445 kts 336°
2026-04-19 21:30 -19.94172 -47.76668 37000 ft 444 kts 336°
2026-04-19 21:31 -19.88208 -47.78487 37010 ft 445 kts 336°
2026-04-19 21:31 -19.82264 -47.80296 37020 ft 446 kts 336°
2026-04-19 21:32 -19.76262 -47.82122 37030 ft 446 kts 336°
2026-04-19 21:32 -19.70297 -47.83934 37036 ft 445 kts 336°
2026-04-19 21:33 -19.64357 -47.85738 37039 ft 445 kts 336°
2026-04-19 21:33 -19.58406 -47.87543 37038 ft 445 kts 336°
2026-04-19 21:34 -19.52429 -47.89357 37043 ft 446 kts 336°
2026-04-19 21:34 -19.46417 -47.91178 37054 ft 445 kts 336°
2026-04-19 21:35 -19.40476 -47.92975 37051 ft 444 kts 336°
2026-04-19 21:35 -19.34521 -47.94777 37057 ft 445 kts 336°
2026-04-19 21:36 -19.28534 -47.96589 37056 ft 445 kts 336°
2026-04-19 21:36 -19.22591 -47.98383 37054 ft 444 kts 336°
2026-04-19 21:37 -19.16654 -48.00177 37048 ft 444 kts 336°
2026-04-19 21:37 -19.10682 -48.01979 37039 ft 445 kts 336°
2026-04-19 21:38 -19.04721 -48.03777 37030 ft 444 kts 336°
2026-04-19 21:38 -18.98748 -48.05580 37024 ft 446 kts 336°
2026-04-19 21:39 -18.92800 -48.07371 37031 ft 445 kts 336°
2026-04-19 21:39 -18.86967 -48.09402 37035 ft 440 kts 333°
2026-04-19 21:40 -18.78292 -48.12716 37040 ft 440 kts 333°
2026-04-19 21:41 -18.72546 -48.14910 37037 ft 439 kts 333°
2026-04-19 21:41 -18.66806 -48.17101 37036 ft 439 kts 333°
2026-04-19 21:42 -18.61073 -48.19285 37039 ft 438 kts 333°
2026-04-19 21:42 -18.55329 -48.21473 37049 ft 438 kts 333°
2026-04-19 21:43 -18.49556 -48.23671 37062 ft 438 kts 333°
2026-04-19 21:43 -18.43813 -48.25856 37061 ft 438 kts 333°
2026-04-19 21:44 -18.38094 -48.28032 37049 ft 438 kts 333°
2026-04-19 21:44 -18.32373 -48.30207 37036 ft 437 kts 333°
2026-04-19 21:45 -18.26649 -48.32382 37021 ft 438 kts 333°
2026-04-19 21:45 -18.20901 -48.34563 37013 ft 438 kts 333°
2026-04-19 21:46 -18.15172 -48.36729 37010 ft 437 kts 333°
2026-04-19 21:46 -18.09412 -48.38909 37011 ft 436 kts 333°
2026-04-19 21:47 -18.03714 -48.41070 36958 ft 437 kts 333°
2026-04-19 21:47 -18.00858 -48.42153 36555 ft 437 kts 333°
2026-04-19 21:47 -17.97964 -48.43248 35967 ft 435 kts 333°
2026-04-19 21:47 -17.95117 -48.44325 35299 ft 435 kts 333°
2026-04-19 21:48 -17.92284 -48.45398 34617 ft 436 kts 333°
2026-04-19 21:48 -17.89432 -48.46479 33915 ft 437 kts 333°
2026-04-19 21:48 -17.86539 -48.47575 33188 ft 438 kts 333°
2026-04-19 21:48 -17.83660 -48.48667 32459 ft 440 kts 333°
2026-04-19 21:49 -17.80810 -48.49746 31755 ft 441 kts 333°
2026-04-19 21:49 -17.77877 -48.50855 31012 ft 444 kts 334°
2026-04-19 21:49 -17.75011 -48.51955 30404 ft 441 kts 332°
2026-04-19 21:49 -17.72178 -48.53200 29887 ft 435 kts 329°
2026-04-19 21:50 -17.69493 -48.54575 29419 ft 428 kts 325°
2026-04-19 21:50 -17.66915 -48.56098 28943 ft 421 kts 322°
2026-04-19 21:50 -17.64434 -48.57692 28513 ft 416 kts 322°
2026-04-19 21:50 -17.61983 -48.59282 28075 ft 413 kts 322°
2026-04-19 21:51 -17.59545 -48.60865 27605 ft 411 kts 322°
2026-04-19 21:51 -17.57119 -48.62436 27135 ft 409 kts 323°
2026-04-19 21:51 -17.54703 -48.63998 26649 ft 408 kts 323°
2026-04-19 21:51 -17.52260 -48.65574 26147 ft 407 kts 324°
2026-04-19 21:52 -17.49871 -48.67114 25652 ft 406 kts 324°
2026-04-19 21:52 -17.47575 -48.68591 25192 ft 405 kts 325°
2026-04-19 21:52 -17.45195 -48.70119 24713 ft 403 kts 325°
2026-04-19 21:52 -17.42786 -48.71665 24227 ft 402 kts 326°
2026-04-19 21:53 -17.40419 -48.73184 23744 ft 401 kts 326°
2026-04-19 21:53 -17.38032 -48.74716 23251 ft 400 kts 327°
2026-04-19 21:53 -17.35679 -48.76227 22764 ft 399 kts 327°
2026-04-19 21:53 -17.33300 -48.77755 22264 ft 398 kts 328°
2026-04-19 21:54 -17.30934 -48.79271 21769 ft 397 kts 328°
2026-04-19 21:54 -17.28606 -48.80761 21292 ft 395 kts 328°
2026-04-19 21:54 -17.26245 -48.82274 20824 ft 393 kts 328°
2026-04-19 21:54 -17.23922 -48.83762 20363 ft 391 kts 328°
2026-04-19 21:55 -17.21600 -48.85250 19894 ft 389 kts 328°
2026-04-19 21:55 -17.19305 -48.86720 19433 ft 387 kts 327°
2026-04-19 21:55 -17.17013 -48.88191 18967 ft 385 kts 328°
2026-04-19 21:55 -17.14755 -48.89637 18512 ft 383 kts 328°
2026-04-19 21:56 -17.12489 -48.91089 18049 ft 381 kts 327°
2026-04-19 21:56 -17.10213 -48.92547 17580 ft 379 kts 327°
2026-04-19 21:56 -17.07987 -48.93973 17122 ft 377 kts 327°
2026-04-19 21:56 -17.05741 -48.95413 16666 ft 374 kts 327°
2026-04-19 21:57 -17.03543 -48.96821 16231 ft 372 kts 327°
2026-04-19 21:57 -17.01350 -48.98224 15792 ft 369 kts 328°
2026-04-19 21:57 -16.99144 -48.99636 15344 ft 367 kts 328°
2026-04-19 21:57 -16.96962 -49.01029 14904 ft 364 kts 328°
2026-04-19 21:58 -16.94827 -49.02390 14475 ft 362 kts 328°
2026-04-19 21:58 -16.92676 -49.03762 14040 ft 359 kts 328°
2026-04-19 21:58 -16.90542 -49.05124 13601 ft 357 kts 328°
2026-04-19 21:58 -16.88444 -49.06464 13158 ft 355 kts 328°
2026-04-19 21:59 -16.86335 -49.07809 12712 ft 353 kts 328°
2026-04-19 21:59 -16.84238 -49.09146 12270 ft 351 kts 328°
2026-04-19 21:59 -16.82197 -49.10491 11829 ft 349 kts 323°
2026-04-19 21:59 -16.80421 -49.12235 11368 ft 345 kts 308°
2026-04-19 22:00 -16.79086 -49.14303 10962 ft 342 kts 300°
2026-04-19 22:00 -16.77906 -49.16430 10541 ft 340 kts 299°
2026-04-19 22:00 -16.76739 -49.18571 10201 ft 334 kts 299°
2026-04-19 22:00 -16.75618 -49.20614 10098 ft 320 kts 299°
2026-04-19 22:01 -16.74520 -49.22594 9964 ft 302 kts 300°
2026-04-19 22:01 -16.73486 -49.24446 9595 ft 294 kts 300°
2026-04-19 22:01 -16.72464 -49.26271 9241 ft 292 kts 300°
2026-04-19 22:01 -16.71438 -49.28100 9062 ft 284 kts 300°
2026-04-19 22:02 -16.70464 -49.29832 8990 ft 271 kts 300°
2026-04-19 22:02 -16.69514 -49.31523 8713 ft 268 kts 300°
2026-04-19 22:02 -16.68578 -49.33189 8459 ft 264 kts 300°
2026-04-19 22:02 -16.67655 -49.34831 8216 ft 260 kts 300°
2026-04-19 22:03 -16.66753 -49.36436 7991 ft 256 kts 300°
2026-04-19 22:03 -16.65856 -49.38031 7760 ft 252 kts 300°
2026-04-19 22:03 -16.64970 -49.39604 7544 ft 247 kts 300°
2026-04-19 22:03 -16.64103 -49.41137 7329 ft 245 kts 303°
2026-04-19 22:04 -16.62924 -49.42365 7087 ft 241 kts 337°
2026-04-19 22:04 -16.61305 -49.42596 6846 ft 232 kts 17°
2026-04-19 22:04 -16.59915 -49.41839 6623 ft 223 kts 37°
2026-04-19 22:04 -16.58647 -49.40927 6372 ft 221 kts 35°
2026-04-19 22:05 -16.57349 -49.40065 6104 ft 214 kts 33°
2026-04-19 22:05 -16.56084 -49.39260 5857 ft 212 kts 38°
2026-04-19 22:05 -16.55168 -49.38117 5579 ft 207 kts 73°
2026-04-19 22:05 -16.55089 -49.36652 5397 ft 204 kts 108°
2026-04-19 22:06 -16.55670 -49.35316 5187 ft 203 kts 121°
2026-04-19 22:06 -16.56425 -49.34084 4927 ft 201 kts 123°
2026-04-19 22:06 -16.57158 -49.32874 4681 ft 195 kts 121°
2026-04-19 22:06 -16.57853 -49.31652 4363 ft 193 kts 120°
2026-04-19 22:07 -16.58511 -49.30465 4114 ft 183 kts 120°
2026-04-19 22:07 -16.59124 -49.29362 3902 ft 168 kts 121°
2026-04-19 22:07 -16.59692 -49.28348 3663 ft 157 kts 121°
2026-04-19 22:07 -16.60223 -49.27401 3469 ft 148 kts 121°
2026-04-19 22:08 -16.60741 -49.26478 3288 ft 148 kts 121°
2026-04-19 22:08 -16.61264 -49.25545 3046 ft 147 kts 121°
2026-04-19 22:08 -16.61773 -49.24631 2791 ft 146 kts 121°
2026-04-19 22:08 -16.62287 -49.23708 2632 ft 146 kts 121°
2026-04-19 22:09 -16.62801 -49.22807 2481 ft 144 kts 121°
2026-04-19 22:09 -16.63267 -49.21980 2469 ft 111 kts 121°
2026-04-19 22:09 -16.63559 -49.21450 2469 ft 67 kts 122°
2026-04-19 22:09 -16.63724 -49.21164 2469 ft 20 kts 117°
2026-04-19 22:10 -16.63695 -49.21068 2469 ft 15 kts 32°
2026-04-19 22:10 -16.63608 -49.21016 2469 ft 14 kts 29°
2026-04-19 22:10 -16.63521 -49.20994 2469 ft 12 kts 348°
2026-04-19 22:10 -16.63434 -49.21022 2469 ft 13 kts 341°
2026-04-19 22:11 -16.63359 -49.21079 2469 ft 13 kts 305°
2026-04-19 22:11 -16.63308 -49.21167 2469 ft 14 kts 299°
2026-04-19 22:11 -16.63257 -49.21260 2469 ft 14 kts 300°
2026-04-19 22:11 -16.63205 -49.21355 2469 ft 15 kts 300°
2026-04-19 22:12 -16.63150 -49.21452 2469 ft 15 kts 301°
2026-04-19 22:12 -16.63082 -49.21540 2469 ft 14 kts 319°
2026-04-19 22:12 -16.63058 -49.21559 2469 ft 0 kts 325°
2026-04-19 22:12 -16.63056 -49.21561 2469 ft 0 kts 325°
2026-04-19 22:13 -16.63045 -49.21563 2469 ft 2 kts 11°
2026-04-19 22:13 -16.63026 -49.21541 2469 ft 5 kts 54°
2026-04-19 22:13 -16.63006 -49.21510 2469 ft 0 kts 57°
2026-04-19 22:13 -16.63005 -49.21510 2469 ft 0 kts 57°